APX641 LPPR-LEGE

Flight info

Callsign APX641
Flight time N/A
Altitude 32000
Route BELDU UL155 ADORO L155 ZMR DCT OSTIX DCT ZAR DCT MECKI DCT MAMUK
Aircraft C25B/M-SDE2E3FGHRWXY/LB1

Departure

Time N/A
Airport Francisco de Sá Carneiro Airport (LPPR)

Arrival

Time 2026-05-05 15:12
Airport Girona-Costa Brava Airport (LEGE)
Time Latitude Longitude Altitude Speed Heading
2026-05-05 14:48 41.67324 0.76374 39122 ft 377 kts 81°
2026-05-05 14:48 41.67771 0.79897 38569 ft 390 kts 80°
2026-05-05 14:48 41.68244 0.83522 38021 ft 401 kts 80°
2026-05-05 14:48 41.68734 0.87241 37473 ft 411 kts 80°
2026-05-05 14:49 41.69229 0.91040 36924 ft 418 kts 81°
2026-05-05 14:49 41.69726 0.94904 36374 ft 425 kts 80°
2026-05-05 14:49 41.70232 0.98827 35821 ft 429 kts 80°
2026-05-05 14:49 41.70745 1.02788 35265 ft 433 kts 80°
2026-05-05 14:50 41.71255 1.06775 34663 ft 437 kts 81°
2026-05-05 14:50 41.71774 1.10813 33953 ft 442 kts 80°
2026-05-05 14:50 41.72292 1.14881 33244 ft 446 kts 81°
2026-05-05 14:50 41.72816 1.18985 32532 ft 448 kts 80°
2026-05-05 14:51 41.73339 1.23113 31818 ft 450 kts 81°
2026-05-05 14:51 41.73862 1.27236 31106 ft 450 kts 80°
2026-05-05 14:51 41.74376 1.31323 30399 ft 450 kts 81°
2026-05-05 14:51 41.74897 1.35453 29683 ft 450 kts 81°
2026-05-05 14:52 41.75416 1.39597 28853 ft 451 kts 81°
2026-05-05 14:52 41.75934 1.43737 28012 ft 450 kts 81°
2026-05-05 14:52 41.76450 1.47873 27167 ft 448 kts 81°
2026-05-05 14:52 41.76958 1.51970 26325 ft 446 kts 81°
2026-05-05 14:53 41.77467 1.56060 25480 ft 443 kts 81°
2026-05-05 14:53 41.77967 1.60121 24636 ft 441 kts 81°
2026-05-05 14:53 41.78467 1.64160 23790 ft 438 kts 81°
2026-05-05 14:53 41.78956 1.68179 22945 ft 436 kts 81°
2026-05-05 14:54 41.79450 1.72174 22100 ft 433 kts 81°
2026-05-05 14:54 41.79932 1.76149 21254 ft 431 kts 81°
2026-05-05 14:54 41.80416 1.80097 20407 ft 424 kts 81°
2026-05-05 14:54 41.80878 1.83944 19561 ft 413 kts 81°
2026-05-05 14:55 41.81338 1.87700 18714 ft 404 kts 81°
2026-05-05 14:55 41.81774 1.91344 17875 ft 397 kts 81°
2026-05-05 14:55 41.82213 1.94975 17024 ft 391 kts 81°
2026-05-05 14:55 41.82640 1.98549 16185 ft 386 kts 81°
2026-05-05 14:56 41.83061 2.02045 15712 ft 373 kts 81°
2026-05-05 14:56 41.83463 2.05427 15226 ft 362 kts 81°
2026-05-05 14:56 41.83856 2.08717 15005 ft 347 kts 81°
2026-05-05 14:56 41.84262 2.11840 14796 ft 336 kts 80°
2026-05-05 14:57 41.84673 2.14906 14398 ft 332 kts 80°
2026-05-05 14:57 41.85056 2.17944 14013 ft 329 kts 81°
2026-05-05 14:57 41.85449 2.20951 13629 ft 326 kts 80°
2026-05-05 14:57 41.85825 2.23938 13251 ft 324 kts 81°
2026-05-05 14:58 41.86204 2.26905 12880 ft 322 kts 80°
2026-05-05 14:58 41.86575 2.29822 12514 ft 320 kts 81°
2026-05-05 14:58 41.86939 2.32765 12144 ft 319 kts 81°
2026-05-05 14:58 41.87301 2.35698 11769 ft 317 kts 81°
2026-05-05 14:59 41.87660 2.38611 11402 ft 316 kts 81°
2026-05-05 14:59 41.88017 2.41523 11146 ft 312 kts 81°
2026-05-05 14:59 41.88366 2.44352 10979 ft 305 kts 81°
2026-05-05 14:59 41.88708 2.47148 10559 ft 309 kts 81°
2026-05-05 15:00 41.89069 2.50039 10127 ft 310 kts 79°
2026-05-05 15:00 41.89524 2.51856 9829 ft 310 kts 63°
2026-05-05 15:00 41.91503 2.54418 9236 ft 295 kts 29°
2026-05-05 15:00 41.93330 2.55588 8809 ft 287 kts 24°
2026-05-05 15:01 41.95145 2.56633 8382 ft 280 kts 22°
2026-05-05 15:01 41.96933 2.57618 7953 ft 275 kts 22°
2026-05-05 15:01 41.98689 2.58587 7528 ft 271 kts 22°
2026-05-05 15:01 42.00426 2.59537 7098 ft 268 kts 22°
2026-05-05 15:02 42.02122 2.60471 6677 ft 266 kts 21°
2026-05-05 15:02 42.03826 2.61403 6249 ft 264 kts 22°
2026-05-05 15:02 42.05520 2.62338 5820 ft 262 kts 21°
2026-05-05 15:02 42.07198 2.63256 5395 ft 260 kts 22°
2026-05-05 15:03 42.08869 2.64180 4969 ft 258 kts 22°
2026-05-05 15:03 42.10523 2.65088 4542 ft 254 kts 22°
2026-05-05 15:03 42.12147 2.65987 4115 ft 250 kts 22°
2026-05-05 15:03 42.13750 2.66865 3690 ft 247 kts 22°
2026-05-05 15:04 42.15299 2.67724 3579 ft 232 kts 22°
2026-05-05 15:04 42.16750 2.68529 3567 ft 219 kts 25°
2026-05-05 15:04 42.17782 2.69916 3561 ft 209 kts 66°
2026-05-05 15:04 42.17881 2.71767 3564 ft 199 kts 107°
2026-05-05 15:05 42.15966 2.74137 3566 ft 187 kts 149°
2026-05-05 15:05 42.14861 2.75038 3566 ft 185 kts 150°
2026-05-05 15:05 42.13754 2.75927 3570 ft 186 kts 150°
2026-05-05 15:06 42.12637 2.76819 3569 ft 187 kts 150°
2026-05-05 15:06 42.11515 2.77723 3568 ft 188 kts 150°
2026-05-05 15:06 42.10389 2.78625 3566 ft 188 kts 150°
2026-05-05 15:06 42.09252 2.79537 3494 ft 192 kts 150°
2026-05-05 15:07 42.08125 2.80440 3394 ft 186 kts 150°
2026-05-05 15:07 42.07032 2.81316 3295 ft 181 kts 150°
2026-05-05 15:07 42.05895 2.81966 3148 ft 178 kts 177°
2026-05-05 15:07 42.04711 2.81574 3034 ft 175 kts 199°
2026-05-05 15:08 42.03540 2.81192 2923 ft 173 kts 196°
2026-05-05 15:08 42.02380 2.80695 2702 ft 177 kts 197°
2026-05-05 15:08 42.01177 2.80264 2472 ft 178 kts 195°
2026-05-05 15:08 42.00012 2.79817 2234 ft 171 kts 197°
2026-05-05 15:09 41.98883 2.79395 2010 ft 167 kts 195°
2026-05-05 15:09 41.97818 2.78983 1791 ft 150 kts 197°
2026-05-05 15:09 41.96844 2.78625 1597 ft 141 kts 194°
2026-05-05 15:09 41.95957 2.78279 1431 ft 123 kts 198°
2026-05-05 15:10 41.95183 2.77991 1268 ft 110 kts 194°
2026-05-05 15:10 41.94483 2.77735 1110 ft 104 kts 198°
2026-05-05 15:10 41.93775 2.77451 1006 ft 107 kts 198°
2026-05-05 15:10 41.93058 2.77181 880 ft 106 kts 196°
2026-05-05 15:11 41.92354 2.76918 703 ft 104 kts 197°
2026-05-05 15:11 41.91658 2.76649 568 ft 105 kts 196°
2026-05-05 15:11 41.90975 2.76391 465 ft 94 kts 196°
2026-05-05 15:11 41.90400 2.76172 447 ft 76 kts 194°
2026-05-05 15:12 41.90146 2.76077 438 ft 22 kts 188°
2026-05-05 15:12 41.90079 2.76152 432 ft 10 kts 106°
2026-05-05 15:12 41.90062 2.76266 427 ft 9 kts 69°
2026-05-05 15:12 41.90109 2.76287 428 ft 10 kts 15°
2026-05-05 15:13 41.90196 2.76326 430 ft 16 kts 17°
2026-05-05 15:13 41.90318 2.76371 433 ft 8 kts 23°
2026-05-05 15:13 41.90319 2.76456 429 ft 7 kts 99°
2026-05-05 15:13 41.90317 2.76481 429 ft 3 kts 62°
2026-05-05 15:14 41.90346 2.76493 430 ft 5 kts 17°
2026-05-05 15:14 41.90355 2.76496 430 ft 0 kts 15°